Tracking 30107 objects as of 18-Jan-2025
HD Live streaming from Space Station
objects crossing your sky now

GEESAT 1-07

Track GEESAT 1-07 now!
10-day predictions


NORAD ID: 52791
Int'l Code: 2022-058G
Perigee: 589.0 km
Apogee: 596.8 km
Inclination: 50.0 °
Period: 96.4 minutes
Semi major axis: 6963 km
RCS: Unknown
Launch date: June 2, 2022
Source: People's Republic of China (PRC)
Launch site: Xichang Space Center, China (XSC)
Your satellite tracking list
Your tracking list is empty




NASA's NSSDC Master Catalog

Two Line Element Set (TLE):
1 52791U 22058G   25017.59518815  .00007942  00000-0  76051-3 0  9992
2 52791  49.9895 103.0167 0005586 341.0016  19.0717 14.93899625142948
Source of the keplerian elements: AFSPC